GFSNIL_sfc_dewp_000.txt.gz
Dewpoint
44 42 41 41 39 39 40 40 40 41 41 41 40 40 40 40 41 40 41 39 39 38
42 43 41 39 40 40 40 37 40 41 39 39 40 40 39 39 38 38 39 39 39 37
40 41 40 40 39 40 40 38 38 39 39 39 39 38 37 37 38 37 38 38 37 37
40 40 39 39 39 39 38 37 36 37 36 36 36 38 39 37 36 34 33 35 35 34
39 37 37 38 36 36 36 37 35 35 34 35 35 37 37 36 36 34 33 32 32 31
36 35 35 34 35 35 35 34 32 29 28 26 27 26 27 27 28 27 25 25 25 26
36 34 32 33 32 32 31 29 27 27 27 28 25 23 26 25 26 25 23 25 23 23
35 33 32 33 31 31 30 26 26 25 26 27 24 23 26 24 23 23 22 22 21 22
35 34 33 32 32 29 27 25 25 26 26 26 20 26 25 25 22 21 21 20 20 21
38 35 35 31 28 25 25 26 27 27 26 26 26 25 25 24 21 20 19 19 20 20
36 34 32 30 29 26 25 26 26 27 26 25 23 29 27 24 22 20 20 20 20 20
36 30 31 29 29 26 25 25 26 26 27 26 25 28 29 27 23 23 21 21 22 23
28 30 30 30 28 25 25 24 27 27 27 28 26 29 27 26 24 21 21 23 23 23
32 28 28 28 24 24 24 25 29 29 28 27 27 26 26 26 24 23 23 21 21 23

GFSNIL_sfc_dewp_003.txt.gz
Dewpoint
39 39 38 36 35 36 37 37 39 38 38 38 38 38 38 38 38 39 38 38 38 38
40 40 39 36 35 37 39 37 39 39 38 38 38 38 37 36 37 37 37 37 37 38
41 41 41 38 38 37 37 37 37 36 36 35 35 36 37 37 36 36 35 35 36 36
38 37 38 37 35 35 35 35 35 34 34 34 34 35 36 36 36 35 34 35 35 34
37 35 36 34 33 33 33 33 33 32 29 29 28 29 32 34 35 33 30 28 27 27
37 34 31 30 31 30 30 30 28 27 27 26 27 26 26 27 27 26 25 25 24 23
41 36 30 32 31 30 28 26 24 23 25 27 26 26 25 24 24 23 23 24 23 22
38 36 37 36 33 32 29 25 22 22 24 25 24 23 24 22 22 21 21 22 21 21
39 39 38 36 35 32 26 21 21 23 25 24 22 26 25 23 20 20 20 19 19 21
37 37 38 38 35 25 23 21 22 24 25 24 23 25 24 24 21 20 19 19 20 19
35 36 38 37 29 25 22 20 22 24 25 25 24 28 27 24 22 22 22 22 21 21
33 34 33 32 29 27 22 21 23 26 25 25 25 29 28 28 24 24 23 23 22 21
34 33 34 34 29 25 21 22 26 26 26 28 26 29 27 28 23 21 22 22 21 22
33 33 32 31 23 21 21 26 25 26 25 25 26 24 26 23 22 21 22 20 21 23

GFSNIL_sfc_dewp_006.txt.gz
Dewpoint
38 39 37 37 35 38 39 38 39 38 37 37 37 37 36 36 36 36 36 35 35 36
40 40 40 41 39 39 38 38 37 37 35 35 35 35 36 35 34 34 34 34 34 35
40 40 41 38 37 36 35 36 35 33 33 33 34 34 35 34 34 34 34 34 34 34
37 37 38 36 36 35 35 36 34 32 31 29 29 30 31 32 33 34 32 30 28 27
38 36 36 35 34 34 33 34 32 32 28 27 26 26 27 29 28 26 25 25 25 24
39 39 34 33 33 31 30 30 29 27 25 25 26 25 26 26 25 23 23 23 23 23
32 37 34 32 34 36 37 37 30 24 25 27 25 26 24 23 22 22 21 23 23 22
38 36 35 36 37 37 38 36 27 24 24 25 25 23 23 22 21 21 21 22 21 20
37 37 37 36 36 37 37 26 23 23 25 25 22 27 26 23 21 20 19 19 20 20
37 36 37 37 37 37 30 27 23 23 24 24 24 28 27 26 22 21 20 21 21 20
33 34 34 35 34 34 28 25 22 24 25 24 24 28 29 27 25 23 23 23 22 21
33 33 32 33 33 34 28 21 25 25 25 25 27 29 28 27 24 23 22 22 21 21
33 33 33 33 32 30 21 25 25 25 25 26 24 26 23 23 21 17 20 21 20 21
32 31 31 31 25 21 25 25 25 23 24 24 23 23 21 20 20 19 21 19 19 21

GFSNIL_sfc_dewp_009.txt.gz
Dewpoint
36 38 39 39 39 39 39 39 38 37 36 36 36 35 35 34 34 33 32 31 32 33
39 39 40 40 40 38 38 38 38 37 37 38 35 34 34 33 32 32 32 32 32 32
40 39 39 40 38 36 35 37 36 38 38 33 32 32 33 32 32 33 32 33 31 28
38 38 38 37 36 35 34 36 37 36 32 30 29 29 29 28 30 32 30 26 25 25
35 35 36 36 34 35 35 33 33 35 35 30 27 27 27 27 29 26 24 23 23 23
32 35 37 36 32 32 33 35 36 36 31 27 26 26 26 27 25 22 22 23 22 22
35 36 32 31 32 33 35 36 36 36 29 27 26 25 25 23 22 22 22 23 23 22
36 36 35 34 35 35 36 36 36 30 25 26 25 24 22 22 22 22 21 22 21 21
33 35 36 36 36 37 37 37 25 30 26 25 23 28 27 25 22 21 21 21 21 21
33 34 34 35 36 35 34 30 29 23 23 23 23 28 28 30 25 25 23 23 23 21
32 32 32 33 34 33 34 32 23 24 25 24 26 29 29 29 25 24 23 21 20 21
32 32 32 32 32 32 31 26 24 25 26 25 26 26 25 23 22 21 20 20 20 20
31 32 31 30 30 30 21 25 25 25 25 23 22 24 21 21 20 15 19 20 19 21
29 27 27 25 24 21 25 25 24 25 23 22 22 21 20 20 18 18 21 19 19 21

GFSNIL_sfc_dewp_012.txt.gz
Dewpoint
36 37 38 39 39 39 39 39 37 37 35 35 36 37 37 35 33 33 31 30 30 31
39 39 39 40 40 39 38 38 37 36 37 37 38 36 35 33 31 32 32 32 32 32
34 35 36 37 37 37 37 36 37 37 37 37 36 34 34 33 31 31 31 32 31 27
32 33 35 36 36 35 34 35 36 36 34 31 32 31 29 28 28 28 30 27 25 24
32 33 34 35 35 34 34 34 33 34 35 35 32 28 26 26 26 28 25 24 23 23
32 33 33 32 32 32 32 32 35 36 36 33 29 25 26 25 26 23 22 23 23 22
31 34 34 33 32 32 33 35 37 36 35 29 25 25 25 24 22 22 23 24 23 23
32 33 34 35 35 35 35 36 37 33 26 25 25 24 23 22 22 22 22 23 23 22
32 32 33 34 34 34 35 34 34 28 27 25 23 28 28 27 26 24 24 24 23 23
32 32 32 32 33 33 33 32 31 27 23 23 24 29 29 30 26 24 23 22 19 18
31 31 31 32 32 31 32 31 29 24 24 25 28 28 28 27 22 21 21 20 19 19
31 30 31 31 30 29 29 27 25 25 25 26 23 25 23 22 22 21 20 19 19 19
30 29 28 27 27 28 22 23 25 25 24 22 22 22 20 21 20 16 19 21 20 21
28 28 26 26 25 23 23 25 23 24 23 22 22 20 19 20 18 18 21 20 19 21

GFSNIL_sfc_dewp_015.txt.gz
Dewpoint
42 40 37 37 36 37 38 39 42 41 39 38 37 35 35 34 34 34 33 32 32 30
34 34 34 36 37 36 39 39 41 40 38 40 38 36 36 35 35 34 33 34 34 32
32 33 33 34 33 34 37 39 40 39 39 38 37 35 35 33 33 33 32 30 32 32
32 33 33 32 33 34 37 38 38 38 38 36 34 35 35 33 31 30 29 31 30 28
31 32 33 33 34 36 35 36 36 36 35 35 37 36 33 29 27 28 28 27 26 25
30 32 33 33 34 35 35 35 35 34 36 36 36 33 28 27 27 27 26 25 25 25
31 33 34 34 34 35 36 37 37 37 37 35 29 26 26 26 25 24 24 26 25 25
31 34 34 34 34 35 36 36 38 37 32 31 27 23 26 24 24 25 25 25 22 22
30 32 34 34 34 34 34 34 35 32 32 30 23 30 30 29 26 25 21 18 18 17
30 31 33 32 31 31 32 33 34 34 28 26 28 30 29 28 21 19 18 17 15 14
28 30 32 31 30 30 31 33 34 30 26 27 25 27 25 23 21 18 17 16 16 16
28 30 30 29 29 29 29 28 26 26 26 25 23 24 21 21 21 20 18 17 17 18
30 30 29 29 28 28 28 24 25 26 25 21 23 21 20 20 23 23 20 19 17 19
29 29 29 29 28 27 25 26 28 26 25 22 22 21 19 20 24 22 20 17 16 18

GFSNIL_sfc_dewp_018.txt.gz
Dewpoint
30 27 26 28 28 28 28 29 34 36 38 41 40 37 37 38 34 32 30 30 28 26
30 30 30 32 32 29 30 28 33 39 40 40 40 39 39 35 34 33 32 30 30 26
30 30 31 31 30 30 31 31 33 36 38 39 39 40 37 34 35 31 30 26 27 27
30 31 30 30 30 30 32 31 31 32 35 36 37 36 36 36 37 31 27 27 26 28
29 28 29 30 29 31 31 32 32 33 33 33 33 34 35 35 30 25 25 26 26 25
27 28 29 30 30 30 31 31 33 32 32 32 36 37 35 29 26 26 26 27 27 26
28 29 30 30 30 31 31 32 31 33 33 35 31 28 28 26 27 26 26 28 27 26
29 30 30 32 30 32 32 31 31 32 32 33 32 30 31 28 27 27 26 26 23 20
28 29 30 30 31 31 30 30 30 30 32 34 29 30 30 27 25 24 22 20 18 18
28 28 29 28 28 28 29 30 30 31 33 32 30 30 28 24 23 23 20 18 17 15
25 25 26 28 28 30 29 29 29 29 29 28 27 27 23 22 24 21 19 18 18 18
26 26 26 26 29 30 29 29 28 27 28 29 27 24 21 22 24 22 21 19 18 17
24 25 26 27 28 30 30 27 25 26 29 25 27 22 20 21 25 26 23 21 17 16
25 26 27 29 30 29 28 26 30 29 29 27 26 25 20 20 26 25 22 20 18 17

GFSNIL_sfc_dewp_021.txt.gz
Dewpoint
32 32 29 29 30 28 28 28 31 32 35 37 37 37 41 38 41 39 36 33 31 30
35 31 32 32 32 29 30 26 30 33 33 35 36 38 41 41 40 36 35 37 34 31
34 31 33 33 31 30 30 30 31 31 31 32 34 40 39 37 36 36 37 36 31 29
31 31 32 32 31 30 31 30 29 30 31 31 31 31 33 34 36 35 35 34 29 30
31 29 30 31 30 30 30 30 29 29 30 29 29 31 33 34 35 34 30 28 29 28
29 29 30 30 30 30 29 29 29 29 30 29 32 34 31 28 28 28 29 29 27 27
28 30 31 31 30 31 30 30 29 30 29 30 29 29 30 29 29 29 28 30 29 27
28 30 31 30 30 30 31 29 28 29 29 29 32 30 31 30 30 28 28 27 24 22
28 29 30 29 30 30 29 28 29 28 28 30 31 31 29 26 25 25 25 23 21 20
27 28 27 26 24 26 28 30 29 28 29 30 31 31 27 24 23 24 24 21 19 17
26 22 22 23 24 26 29 29 29 28 28 29 28 29 24 23 24 25 23 22 21 20
21 22 23 23 25 27 28 29 28 27 27 27 29 27 24 22 25 25 23 22 21 19
21 21 22 24 26 28 29 27 26 25 26 27 30 26 23 22 26 26 24 22 21 20
22 23 25 27 27 29 28 29 30 30 30 29 30 28 24 22 24 26 24 22 21 21

GFSNIL_sfc_dewp_024.txt.gz
Dewpoint
39 38 38 38 34 35 34 34 35 36 37 38 39 40 40 40 40 40 40 37 37 34
40 39 39 37 36 36 35 30 35 36 36 36 37 39 37 41 41 41 40 37 38 36
38 40 39 37 35 33 34 34 35 35 35 35 35 36 38 38 37 37 38 38 38 37
39 39 37 37 35 33 34 34 34 34 33 33 34 34 35 35 35 36 36 36 36 36
39 36 37 36 34 34 33 34 33 33 32 33 33 34 35 35 34 34 33 31 32 31
36 35 36 34 35 34 34 33 33 32 33 33 33 34 34 33 32 31 31 31 31 30
36 36 34 35 35 34 34 33 33 33 33 34 32 31 32 31 30 31 31 31 30 29
34 33 34 36 35 35 35 33 33 32 32 33 32 30 32 30 30 30 29 29 27 25
34 32 35 35 34 35 34 32 32 32 32 33 30 31 29 26 25 27 26 25 23 22
33 32 34 30 29 29 31 33 33 33 32 31 31 31 28 25 23 25 26 24 22 20
32 29 28 29 28 30 32 32 33 32 32 31 30 31 27 25 22 26 25 23 23 21
27 26 27 27 29 31 31 32 32 31 30 30 29 30 27 23 24 27 25 24 23 22
25 27 27 29 30 31 31 31 31 30 31 29 30 29 26 23 27 26 27 25 23 22
29 29 29 30 30 31 31 31 31 29 30 29 31 28 27 25 25 26 26 25 24 25

GFSNIL_sfc_dewp_027.txt.gz
Dewpoint
35 36 36 34 34 34 33 32 32 33 33 34 35 36 38 39 38 38 38 37 36 36
35 36 37 34 34 34 33 30 32 33 32 33 33 33 35 37 39 39 39 38 38 36
35 37 36 35 35 32 32 31 32 32 32 32 33 33 34 36 35 35 36 37 36 37
36 37 37 36 34 33 33 31 31 31 31 31 32 33 33 34 33 34 34 35 36 35
37 37 36 37 34 34 32 31 31 31 32 33 33 33 33 33 32 31 31 31 30 30
37 36 35 34 34 34 32 31 31 31 32 33 33 32 33 33 31 30 31 31 30 28
36 35 35 34 33 32 33 32 30 31 32 33 33 33 32 32 31 32 31 31 29 28
36 37 34 35 34 34 33 31 32 33 32 32 33 31 31 28 28 27 27 27 26 23
35 34 35 34 32 32 31 32 33 31 31 32 30 32 30 27 25 25 25 24 22 21
35 33 32 29 28 28 28 31 32 32 31 31 31 32 29 27 23 23 25 23 21 21
31 30 29 28 28 30 32 30 30 31 31 32 30 32 30 26 21 24 25 23 22 21
29 29 30 31 32 33 31 30 31 31 31 30 30 31 29 24 23 25 25 24 23 23
33 32 32 34 32 30 29 30 31 28 29 31 29 31 29 25 25 25 25 24 23 23
33 33 33 31 30 30 30 30 30 30 28 29 29 28 30 29 25 25 26 25 24 23

GFSNIL_sfc_dewp_030.txt.gz
Dewpoint
34 35 35 35 35 36 34 34 34 34 33 33 33 33 33 36 37 38 37 36 36 36
38 37 36 35 35 36 34 33 34 33 32 34 33 33 33 35 36 38 37 36 36 37
36 37 36 37 35 34 34 33 33 32 32 31 31 32 33 34 34 34 35 36 36 36
36 37 37 37 35 34 34 33 32 32 31 30 31 32 32 33 33 33 34 33 34 36
37 39 37 36 35 34 33 33 32 32 31 31 32 32 33 33 33 31 30 31 31 31
36 37 35 36 35 34 32 32 32 31 30 31 32 33 33 34 32 30 31 31 30 29
36 37 35 36 34 34 33 33 32 32 32 34 32 32 32 31 31 31 31 31 29 27
37 37 36 35 34 34 34 32 32 32 33 34 33 32 32 30 29 27 26 26 24 23
38 37 37 35 34 30 29 29 31 31 33 32 32 33 34 30 25 25 25 24 22 21
35 32 32 31 29 30 31 32 31 31 32 32 33 33 32 30 24 24 24 24 21 20
33 31 32 33 34 35 34 32 31 31 32 32 32 33 32 29 22 23 25 24 22 22
33 34 36 37 36 34 33 30 30 31 32 31 31 33 31 26 22 24 25 25 24 23
37 37 36 36 34 32 30 30 31 30 30 30 29 33 31 27 24 24 25 25 23 24
38 37 35 34 31 30 29 28 27 28 29 29 29 29 32 31 24 25 25 25 24 23

GFSNIL_sfc_dewp_033.txt.gz
Dewpoint
45 47 47 44 38 36 35 35 35 35 35 34 34 33 32 34 35 37 37 37 37 36
42 42 42 41 36 35 36 34 35 35 34 34 33 32 33 34 34 37 37 36 36 36
38 37 36 35 35 34 35 36 35 34 33 33 32 32 32 33 34 34 34 35 34 35
37 38 35 33 33 33 35 34 34 34 33 32 31 32 33 33 33 33 32 33 32 33
37 36 35 34 34 35 33 34 34 33 32 31 31 31 32 31 32 32 30 30 31 32
37 36 35 35 35 34 33 33 32 32 31 31 32 32 32 32 33 31 30 30 30 29
37 37 35 35 35 35 34 33 32 32 33 33 33 32 32 32 31 31 31 31 30 29
37 38 37 37 36 36 35 33 33 33 33 34 33 31 33 31 30 29 28 28 26 24
39 38 37 35 34 33 33 33 33 34 34 33 31 33 35 32 29 27 25 24 23 21
34 32 33 33 34 35 36 37 35 33 31 31 32 34 35 33 27 25 24 24 22 21
34 34 35 35 37 38 37 36 35 32 31 31 31 33 34 33 24 24 24 25 23 22
37 37 38 37 37 37 37 35 31 31 30 29 29 33 34 31 23 23 24 25 24 23
39 38 37 37 37 35 32 30 30 28 28 30 29 31 34 31 24 24 25 25 25 28
39 38 38 36 35 33 30 28 27 27 28 28 29 29 32 33 26 25 25 25 24 24

GFSNIL_sfc_dewp_036.txt.gz
Dewpoint
54 50 49 45 40 39 36 37 37 37 38 39 37 35 34 34 34 35 37 36 36 36
51 50 47 44 42 37 36 35 36 41 39 37 34 33 34 34 34 36 37 37 37 35
48 48 47 43 39 37 35 35 40 38 35 35 34 33 34 34 35 36 35 35 34 34
44 46 45 43 40 37 35 37 38 34 34 34 33 33 32 33 34 33 33 33 34 33
44 43 41 38 34 35 34 37 34 35 34 33 32 32 32 33 32 33 32 32 31 33
39 39 34 33 34 35 35 35 34 34 33 33 33 33 33 32 32 32 32 30 30 30
41 37 36 36 35 35 35 34 33 34 34 34 33 33 33 32 32 32 32 31 31 30
39 38 37 37 36 37 35 34 34 34 36 36 36 32 33 32 32 31 30 30 30 30
40 38 39 37 35 34 34 36 38 38 37 37 33 33 35 34 31 30 28 27 26 24
37 34 34 35 36 37 38 38 38 37 37 35 33 33 35 35 30 28 27 26 25 23
36 37 38 38 38 38 38 38 38 36 35 33 32 33 34 34 31 28 26 25 25 23
39 38 38 38 38 38 38 37 36 34 32 30 29 32 33 33 30 26 25 24 25 24
39 39 38 38 37 37 37 35 31 30 29 29 29 30 32 32 27 26 26 25 25 29
39 39 39 38 36 34 32 30 29 28 28 28 28 28 31 33 29 28 27 26 25 26

GFSNIL_sfc_dewp_042.txt.gz
Dewpoint
60 60 59 59 56 52 50 49 47 46 44 41 41 43 43 42 41 40 38 39 37 34
59 59 58 58 56 52 50 47 46 44 41 42 42 43 41 40 38 37 39 39 39 37
59 59 58 57 55 51 48 45 44 42 41 42 42 40 39 38 37 37 39 36 36 35
59 59 58 57 55 52 50 47 43 41 41 42 39 38 37 38 34 37 39 38 35 34
58 57 57 55 54 51 48 44 43 42 42 38 37 37 38 37 35 41 39 34 34 33
55 54 53 52 50 48 46 45 42 41 39 37 38 37 38 40 41 42 39 36 34 33
53 52 53 52 50 48 46 42 41 41 41 39 36 36 39 41 41 40 40 37 35 35
50 48 47 46 45 44 44 40 39 38 40 40 39 40 40 39 39 39 37 36 34 36
44 42 41 41 40 39 38 39 40 40 41 40 38 39 37 38 39 39 34 33 33 33
41 39 39 38 37 39 39 41 41 40 39 39 40 38 38 37 36 33 32 32 31 29
40 39 39 39 39 40 40 40 39 40 40 41 39 37 37 34 33 32 30 30 30 31
39 39 39 39 40 41 40 41 40 39 38 37 38 37 34 32 32 29 30 29 29 29
39 39 39 40 40 39 38 38 37 36 36 34 34 34 33 32 32 31 31 31 30 30
38 37 37 35 34 33 32 32 34 34 34 33 33 33 34 34 33 33 34 32 30 30

GFSNIL_sfc_dewp_048.txt.gz
Dewpoint
59 60 60 60 61 59 58 58 57 57 56 54 51 50 49 48 47 45 44 41 43 42
59 60 61 61 60 59 59 58 57 56 51 50 48 47 47 46 43 43 44 42 43 42
57 59 61 61 60 60 59 57 55 51 49 48 46 47 45 44 43 42 42 43 42 42
60 59 61 60 59 59 58 52 50 49 48 46 45 46 44 42 40 40 41 44 44 43
60 60 59 59 59 57 53 51 49 48 47 45 46 45 43 39 37 43 42 43 44 42
60 59 58 57 55 55 53 52 48 47 45 45 44 42 40 41 43 43 43 43 42 41
57 56 54 53 51 50 48 46 45 46 45 43 41 42 43 43 42 41 41 41 41 41
55 55 54 52 51 50 48 46 44 42 42 42 42 41 42 40 40 39 39 41 41 40
53 53 53 52 50 48 45 42 42 41 41 40 39 39 39 39 39 40 40 39 39 39
46 45 44 42 42 42 42 42 41 41 41 41 40 38 38 37 39 39 39 39 38 38
43 41 41 40 41 41 42 41 41 41 41 41 39 38 38 37 38 38 38 37 34 32
42 41 41 41 42 42 42 41 41 41 41 40 40 37 37 37 37 34 33 32 32 32
42 41 41 42 42 42 41 41 40 40 40 34 35 36 34 33 33 31 31 31 30 31
41 41 41 41 41 39 37 36 35 33 33 33 33 31 32 30 29 26 26 27 26 27

GFSNIL_sfc_dewp_051.txt.gz
Dewpoint
57 58 58 58 58 58 58 58 58 58 57 55 54 51 50 49 48 48 47 44 45 46
57 57 58 58 59 58 56 56 56 57 55 54 51 49 49 47 47 46 44 44 45 43
57 58 59 59 58 58 57 56 55 55 53 50 48 47 47 46 45 44 44 44 42 44
57 58 59 59 58 58 56 54 54 52 50 48 47 47 45 44 43 44 43 44 43 43
59 59 59 58 58 58 56 53 51 50 49 47 46 45 44 42 41 42 43 43 43 42
60 59 58 57 56 55 53 51 49 49 47 46 46 44 42 40 42 44 43 42 42 42
57 56 55 54 53 52 52 49 48 47 46 46 44 42 42 43 43 43 42 42 41 42
54 54 53 51 51 49 48 47 46 45 43 43 42 42 43 42 42 40 40 40 41 41
54 53 52 51 49 48 45 44 43 42 42 42 41 40 39 40 39 39 39 39 40 40
51 50 50 49 46 43 41 40 40 39 39 39 39 38 38 37 39 39 39 39 38 38
44 42 42 41 41 41 40 39 39 39 39 39 38 38 38 37 38 36 36 36 36 33
41 40 40 40 40 40 40 40 39 40 39 39 38 37 37 36 35 33 31 32 31 30
41 41 41 40 41 40 41 40 40 39 39 36 33 34 34 33 29 27 26 27 28 29
42 41 41 41 40 40 39 37 34 33 33 31 30 29 29 28 24 25 26 24 24 24

GFSNIL_sfc_dewp_057.txt.gz
Dewpoint
52 52 51 50 53 54 53 54 56 57 58 58 56 56 55 55 54 52 50 49 48 49
49 51 51 52 53 56 55 55 55 57 57 55 55 55 53 52 50 49 49 49 48 47
48 51 50 52 54 57 57 57 56 55 55 55 54 54 52 48 48 48 48 47 46 45
49 51 53 53 55 57 57 57 57 56 55 54 53 50 48 47 47 46 45 45 45 44
52 53 54 55 57 58 57 57 57 57 55 53 52 51 49 47 46 45 45 45 44 44
55 55 55 56 58 58 58 58 56 55 54 52 51 49 49 46 46 45 44 44 43 43
56 56 56 57 58 58 58 56 54 54 52 50 49 49 47 46 44 44 44 44 43 43
56 57 57 58 58 58 56 55 53 52 50 49 47 46 44 44 43 43 42 43 42 42
57 57 57 58 56 55 53 52 50 49 47 47 45 40 40 42 43 42 42 41 40 40
57 57 56 53 51 51 50 49 46 46 45 45 44 39 40 39 42 41 40 39 39 36
55 53 52 51 49 46 46 45 45 45 45 44 42 38 38 37 39 38 37 36 35 31
52 51 49 47 46 45 44 44 43 43 42 40 40 37 36 36 35 32 30 29 28 26
49 48 46 45 43 42 42 40 39 38 38 37 37 36 36 34 31 27 26 24 23 25
46 45 44 42 40 40 40 37 33 31 31 32 33 34 34 31 28 26 24 22 22 22

GFSNIL_sfc_dewp_060.txt.gz
Dewpoint
52 51 49 49 50 51 52 52 53 54 55 55 56 57 57 57 56 56 54 53 52 51
50 52 52 51 50 51 52 53 53 54 55 55 55 55 56 56 54 53 52 50 49 50
48 50 51 52 51 51 52 54 54 54 54 55 54 54 53 52 50 51 48 49 49 47
49 49 50 50 51 52 53 56 56 56 56 56 55 55 54 52 50 50 48 47 47 46
50 50 49 50 50 52 54 56 56 56 57 57 55 52 52 50 50 49 47 47 46 45
48 49 49 50 51 53 54 56 56 57 56 56 54 53 52 51 50 48 47 46 45 45
49 50 50 51 53 54 56 55 56 57 56 55 53 52 51 49 48 47 47 45 45 44
52 52 53 54 55 56 56 56 56 57 54 52 50 49 48 48 47 45 44 44 44 44
53 53 54 55 56 56 56 57 57 55 53 50 49 43 43 45 45 44 43 43 42 42
53 54 55 56 56 56 56 54 53 51 50 48 47 41 41 40 43 43 42 41 40 36
54 55 56 55 55 53 51 51 49 49 47 46 43 39 39 39 41 40 39 39 35 32
56 55 52 51 48 47 47 47 45 44 44 42 40 39 38 38 36 34 31 30 30 29
53 51 49 47 46 46 45 42 41 40 41 39 38 37 36 35 32 29 27 25 25 27
49 48 46 44 43 42 40 36 34 33 33 34 36 35 35 33 30 28 25 22 21 22

GFSNIL_sfc_dewp_063.txt.gz
Dewpoint
52 52 51 51 51 52 54 54 55 55 56 57 58 58 59 59 59 59 56 55 56 56
53 52 52 53 54 53 53 54 54 55 55 56 57 58 59 59 59 59 58 58 59 57
52 53 53 54 53 53 53 53 54 54 55 55 56 57 58 58 58 57 58 57 56 55
52 53 53 54 54 54 55 54 54 54 54 54 55 57 57 57 57 56 56 54 53 53
53 52 52 52 53 54 54 54 54 54 54 54 56 56 56 56 54 53 52 51 51 51
53 53 52 52 52 53 53 54 54 54 55 55 54 56 56 55 54 53 53 51 50 50
52 52 53 53 53 53 53 53 54 55 55 55 56 56 55 54 53 52 51 50 49 48
52 51 52 52 53 53 53 53 53 54 55 57 57 56 55 54 53 51 49 48 47 46
52 51 52 52 53 53 54 54 55 55 56 56 55 47 47 51 51 49 47 45 45 44
52 52 53 53 53 54 56 56 56 56 57 56 55 45 45 44 49 47 45 43 42 39
54 53 53 54 55 56 57 56 56 56 53 53 49 43 41 40 45 43 43 41 39 36
54 54 54 55 56 54 52 50 48 48 47 46 42 39 39 40 38 36 35 34 34 33
55 55 55 51 49 47 47 44 43 42 43 40 39 37 37 37 34 31 30 30 29 29
54 52 50 47 45 44 40 37 35 34 36 37 38 36 36 36 34 31 29 26 25 25

GFSNIL_sfc_dewp_066.txt.gz
Dewpoint
53 53 53 54 53 54 54 54 55 57 57 57 57 56 57 58 57 59 59 59 59 58
54 54 53 54 54 54 54 53 55 57 56 57 55 55 56 57 56 57 60 61 60 59
54 54 53 54 54 54 54 54 55 55 55 54 54 54 55 55 56 57 59 60 59 59
55 56 55 55 55 54 55 54 54 53 53 53 53 54 55 55 55 56 58 59 58 57
55 54 55 55 55 56 55 55 54 54 52 52 52 54 55 55 55 56 57 57 56 54
54 55 55 54 54 55 54 55 55 53 54 54 54 53 54 55 55 56 55 55 55 53
54 55 55 54 54 54 54 53 54 55 54 55 54 53 55 54 55 55 54 54 54 53
54 53 54 54 54 55 55 54 54 54 55 55 55 54 55 53 55 55 55 55 54 53
52 52 53 54 54 54 54 53 53 54 54 55 53 47 46 50 56 55 55 53 52 50
52 52 53 52 52 52 54 54 55 54 53 54 55 46 45 45 55 55 53 50 47 44
52 52 52 53 52 53 54 55 55 55 55 56 55 45 46 44 52 49 48 46 44 42
52 52 53 53 54 55 56 56 57 57 57 56 51 41 40 43 44 41 39 39 39 37
53 53 53 55 55 57 57 54 48 44 45 42 42 38 39 41 38 34 33 33 34 33
54 54 55 56 54 49 44 41 38 36 37 38 38 37 37 36 34 32 31 30 30 31

GFSNIL_sfc_dewp_069.txt.gz
Dewpoint
56 54 53 54 55 56 55 55 56 57 56 56 56 57 57 58 57 59 59 59 58 58
57 56 56 56 57 57 56 53 54 55 56 57 56 56 56 55 56 57 58 60 60 58
56 57 56 56 56 56 57 56 55 55 55 55 55 55 55 53 56 57 58 58 59 59
56 56 57 56 56 56 57 57 56 56 56 55 55 55 55 55 55 55 56 57 58 58
57 57 57 56 57 57 56 57 56 56 55 55 54 55 55 55 54 55 55 56 57 57
57 57 57 57 57 57 57 56 55 54 54 54 55 55 55 55 55 55 55 55 56 57
56 56 57 57 57 57 57 56 55 55 54 55 54 53 54 54 55 55 55 55 57 56
56 56 56 57 57 57 57 56 56 56 56 56 55 53 55 54 55 54 54 56 56 55
54 54 55 57 57 57 57 56 56 56 56 56 54 47 45 50 56 54 55 55 55 54
53 53 55 55 55 55 57 57 57 56 56 56 56 46 44 43 54 55 54 54 56 54
53 53 53 54 54 55 56 56 56 57 57 56 55 44 43 43 54 55 55 55 55 52
53 53 53 53 55 55 56 56 56 56 56 56 56 44 42 44 52 45 40 41 41 40
52 53 53 55 55 56 56 56 55 51 47 42 50 41 42 44 40 36 34 34 35 35
51 53 53 54 56 56 54 46 41 39 38 37 38 38 39 39 36 33 32 32 31 32

GFSNIL_sfc_dewp_072.txt.gz
Dewpoint
56 55 55 54 52 52 54 55 56 57 56 56 57 57 57 56 57 56 57 56 55 54
56 56 55 55 55 54 54 54 55 56 56 55 54 55 55 55 55 55 55 55 55 55
56 56 55 54 54 56 56 55 55 55 56 55 54 54 54 53 54 55 55 54 55 55
56 57 57 55 55 54 57 56 54 55 54 54 53 53 53 53 53 53 52 54 54 55
56 56 57 56 56 56 55 56 55 54 54 53 53 53 53 53 52 52 51 52 53 54
56 56 56 56 56 56 56 55 55 55 53 53 53 53 53 52 52 52 52 52 52 53
56 56 56 56 56 56 56 55 55 55 54 54 54 53 53 52 53 52 52 53 53 53
55 56 57 56 57 56 56 55 54 55 55 54 54 53 53 53 53 53 53 53 53 53
53 55 55 56 57 57 56 56 55 55 54 54 53 47 44 48 52 52 52 52 53 53
52 52 55 55 55 55 56 56 56 55 55 55 54 46 44 43 52 53 53 53 53 53
53 53 53 54 54 55 55 55 55 55 55 55 54 45 44 42 50 52 53 53 53 53
54 53 53 53 54 54 55 55 55 55 55 55 55 44 43 43 50 52 42 40 40 42
53 53 53 54 54 54 55 55 55 54 46 40 47 39 41 44 43 37 34 34 34 35
47 50 53 55 54 55 54 46 40 36 36 36 37 37 39 40 38 34 32 32 31 32

GFSNIL_sfc_dewp_075.txt.gz
Dewpoint
55 54 53 51 49 50 54 55 57 56 58 57 57 58 58 58 57 57 57 56 55 54
56 55 55 53 51 50 53 54 55 56 56 57 56 56 57 57 56 56 56 56 55 55
56 56 55 55 53 51 51 53 55 56 56 56 55 55 55 54 54 55 55 55 55 54
56 56 56 54 55 54 52 52 54 55 56 56 55 54 53 53 53 53 53 54 55 54
56 57 56 55 54 55 55 54 54 54 54 55 55 54 52 52 51 52 52 53 54 53
55 55 55 56 55 54 54 55 55 54 54 54 54 53 52 52 52 52 53 53 52 52
55 55 54 55 56 56 55 54 55 55 54 54 54 53 52 52 52 52 52 52 52 52
55 55 55 55 56 56 55 55 55 55 55 54 53 53 53 52 52 52 52 52 52 52
55 56 56 56 56 56 55 55 55 55 54 54 54 48 45 49 52 52 51 51 52 52
53 54 55 56 56 55 55 55 55 55 55 54 54 46 44 43 52 53 53 53 52 52
54 53 54 55 55 55 56 56 55 55 55 55 54 45 44 41 49 52 52 52 52 52
50 50 54 54 54 55 55 55 55 55 55 55 55 45 44 44 51 51 52 43 41 45
42 44 46 50 52 55 55 55 55 54 48 40 49 39 41 42 49 45 37 35 35 36
37 38 38 43 44 44 49 49 45 41 37 36 37 37 39 40 41 40 34 32 32 34

GFSNIL_sfc_dewp_078.txt.gz
Dewpoint
55 55 55 54 53 53 54 55 56 56 56 55 56 57 57 57 57 57 56 54 54 55
56 55 54 53 53 52 53 54 57 56 56 56 56 56 57 57 56 57 56 55 55 55
56 55 54 53 50 51 51 53 55 56 56 57 57 57 57 56 56 56 56 55 55 55
56 56 55 54 52 50 50 53 54 55 56 55 56 56 56 55 55 55 55 55 54 54
56 56 55 55 55 53 51 51 53 54 55 55 55 55 55 54 54 54 54 54 54 53
56 56 55 55 55 55 53 52 51 52 53 54 55 55 54 53 53 52 52 52 52 52
55 55 55 56 56 55 55 55 54 53 53 53 53 54 54 53 53 52 51 51 52 52
55 55 55 55 55 56 55 54 54 55 55 54 54 53 53 53 53 52 51 51 52 52
55 55 55 54 54 54 55 55 55 54 54 55 54 48 46 50 53 52 51 51 51 51
55 55 55 55 55 54 55 55 55 55 55 54 54 46 44 43 52 52 52 52 52 51
47 49 52 56 55 55 55 55 55 55 55 55 55 45 44 42 50 52 53 53 53 52
44 45 47 49 49 54 56 55 56 56 55 55 55 44 44 44 52 52 53 53 53 52
38 40 42 44 44 45 47 52 55 46 38 35 38 35 36 39 50 51 50 41 37 35
32 34 35 38 39 40 43 40 37 34 33 32 32 33 34 35 38 41 34 33 32 33

GFSNIL_sfc_dewp_081.txt.gz
Dewpoint
54 54 55 55 55 55 55 55 56 56 56 57 57 56 56 57 57 56 55 54 53 53
56 55 55 54 55 55 55 55 55 56 56 56 56 56 56 55 56 56 56 55 55 55
56 55 55 54 53 53 53 54 55 56 55 56 56 56 56 56 55 56 55 55 55 54
56 56 55 53 52 52 52 53 55 56 56 56 56 55 55 55 55 55 54 55 55 54
56 56 55 54 53 51 51 52 54 54 56 56 56 56 55 55 54 55 54 54 54 54
56 56 56 55 55 53 51 50 52 53 54 55 55 55 55 55 55 55 55 54 54 54
54 55 56 56 55 56 54 52 51 51 52 53 54 55 55 54 54 54 54 54 54 54
55 55 55 55 55 55 56 55 54 53 52 52 52 52 53 54 53 53 53 52 52 52
55 55 55 55 55 55 55 55 55 55 55 53 52 47 44 48 52 53 52 52 52 52
53 55 54 54 54 54 54 55 55 54 54 54 55 46 45 44 52 53 53 53 52 52
45 46 49 51 55 55 55 54 55 55 55 55 54 42 44 43 51 53 53 53 53 53
39 40 43 44 45 46 49 53 55 55 55 52 43 36 36 38 49 52 53 53 54 46
34 34 35 37 38 42 45 42 40 34 33 34 33 34 35 36 42 48 49 38 35 34
30 31 32 33 35 36 37 35 33 31 30 30 32 32 34 36 36 34 34 32 31 32

GFSNIL_sfc_dewp_084.txt.gz
Dewpoint
55 56 56 57 57 57 57 58 58 58 58 57 57 57 57 57 56 55 55 53 52 53
55 54 55 55 56 57 57 57 58 58 58 58 58 57 57 56 56 56 56 55 55 54
55 55 55 55 54 54 55 56 56 57 57 57 57 57 55 55 55 56 56 56 55 55
56 55 54 54 53 53 53 54 55 56 56 56 56 56 55 55 55 55 54 55 55 55
56 55 55 54 53 52 52 53 54 55 55 56 55 55 56 56 56 55 55 55 54 54
56 56 55 54 53 52 51 52 53 54 55 55 55 55 55 55 55 55 55 55 55 54
54 55 56 55 55 53 52 51 52 53 54 54 54 55 55 55 55 55 55 55 55 54
54 54 54 54 54 55 54 52 51 51 52 53 53 54 54 54 54 54 54 54 54 54
54 54 54 53 54 54 54 54 54 53 52 52 51 46 44 50 54 54 54 53 53 53
50 54 54 54 54 55 55 55 54 54 54 54 54 43 43 43 51 52 53 53 53 52
42 43 45 47 47 51 53 55 55 55 55 55 39 36 36 37 47 52 52 53 53 53
37 38 39 39 40 43 46 44 39 38 39 39 35 35 35 36 43 49 52 51 37 36
33 34 35 36 37 39 38 35 34 32 32 32 32 34 35 36 41 41 36 33 33 33
30 31 32 32 33 34 34 32 31 29 29 29 31 31 33 34 34 34 32 31 30 31

GFSNIL_sfc_dewp_087.txt.gz
Dewpoint
57 58 57 57 58 58 57 56 56 56 56 57 57 57 57 56 56 56 57 56 56 55
57 57 57 58 58 58 59 58 57 56 55 55 54 55 57 56 55 56 57 57 56 55
55 56 57 57 57 57 58 58 58 58 56 56 55 53 54 55 57 55 55 56 55 55
55 56 56 56 57 57 57 57 58 57 57 57 56 54 53 52 55 56 55 56 56 55
57 56 55 55 55 56 57 57 57 58 57 57 57 57 56 53 53 55 55 55 55 55
56 56 56 56 55 55 55 56 56 57 57 57 56 56 56 56 55 55 55 55 55 55
56 56 56 56 55 54 54 55 55 56 56 57 57 56 56 56 56 56 56 56 57 56
56 57 57 57 56 56 55 54 54 55 55 56 56 55 56 56 56 56 55 56 56 57
56 56 56 57 57 57 56 55 54 53 54 54 53 47 46 52 55 55 55 55 56 56
50 50 51 54 55 56 56 57 56 55 54 53 48 37 39 41 54 55 55 55 54 54
42 42 43 44 46 48 47 45 46 44 47 40 35 35 36 36 47 50 52 48 42 43
37 37 38 39 40 42 40 37 36 35 36 35 33 35 35 38 45 46 38 35 34 34
33 34 34 36 36 35 34 33 32 31 32 32 32 33 35 37 42 37 33 32 31 32
31 32 32 33 33 33 32 31 30 29 30 30 31 31 32 33 33 31 29 28 28 29

GFSNIL_sfc_dewp_090.txt.gz
Dewpoint
58 58 58 59 58 56 56 56 56 56 56 57 57 58 58 58 57 58 58 58 58 56
58 58 58 58 58 57 57 57 57 57 57 57 57 57 58 57 56 57 58 58 58 56
57 57 58 59 58 58 57 57 56 56 56 56 55 55 56 56 56 56 56 56 56 54
56 57 57 57 58 58 58 57 56 55 54 53 53 53 52 51 53 56 55 55 56 55
56 56 56 56 57 58 58 58 58 57 57 56 55 54 52 51 50 54 55 53 55 54
55 56 56 57 57 58 58 58 58 58 57 57 56 55 54 53 51 51 52 55 56 55
56 56 57 57 57 57 57 57 57 58 58 58 58 57 56 54 54 53 52 54 56 55
56 56 56 56 56 56 56 56 56 57 57 57 57 57 57 57 57 56 56 56 54 55
55 54 55 56 56 56 56 55 55 55 56 57 54 37 41 52 57 57 56 56 57 57
49 49 50 54 55 55 56 56 55 55 55 46 40 36 37 37 54 56 56 56 55 55
42 42 44 45 46 44 44 42 42 41 39 37 35 35 36 36 48 52 40 38 38 41
38 39 39 39 39 39 37 35 35 35 35 35 34 35 36 41 43 37 34 33 33 34
35 35 35 35 35 34 33 32 32 31 32 32 32 33 35 38 36 32 30 30 31 32
33 33 33 33 33 32 31 31 30 29 30 30 31 31 32 33 32 30 29 28 28 30

GFSNIL_sfc_dewp_093.txt.gz
Dewpoint
57 57 57 60 60 59 57 58 59 60 60 60 60 60 60 60 60 60 60 58 58 57
57 57 58 59 59 58 57 57 57 58 59 59 59 59 59 58 58 59 59 59 59 58
57 57 58 59 58 57 57 57 56 57 57 58 59 59 58 57 58 58 59 58 58 57
56 57 58 59 59 57 57 57 56 57 57 57 57 58 58 58 57 56 56 56 56 56
56 57 57 57 58 58 56 56 56 56 55 55 54 54 53 53 53 53 54 55 55 55
55 56 56 57 58 58 57 57 56 55 55 53 53 53 53 52 52 53 52 52 53 52
56 56 56 57 58 58 58 58 58 57 57 56 55 54 53 53 52 52 52 53 53 52
55 56 57 57 57 57 58 58 58 58 58 58 57 56 55 54 54 53 51 51 52 53
55 55 56 56 57 56 56 56 57 57 57 58 43 37 39 51 55 55 55 54 54 54
50 51 51 54 53 53 55 56 52 51 45 41 38 36 38 38 53 55 51 50 49 54
43 44 44 44 43 42 41 41 41 40 39 38 35 36 37 37 48 40 37 37 38 39
38 38 38 37 37 37 36 35 34 34 34 34 34 35 37 42 39 35 33 32 33 33
35 34 34 34 33 33 32 32 31 30 31 32 32 34 35 35 33 31 30 31 31 32
34 33 33 33 33 32 32 31 30 30 30 30 31 32 33 33 31 31 29 29 29 31

GFSNIL_sfc_dewp_096.txt.gz
Dewpoint
61 60 59 59 61 60 59 59 61 60 60 60 60 60 60 60 59 59 59 58 57 57
60 59 59 60 60 59 58 58 59 60 60 60 59 60 60 59 58 58 59 58 58 57
58 58 60 59 58 57 58 57 58 58 59 59 59 59 59 59 59 58 59 58 57 57
58 58 59 59 58 57 57 57 56 57 57 59 59 59 59 59 58 58 58 58 57 56
58 58 59 58 58 57 56 56 57 57 57 56 57 59 58 58 58 57 57 56 56 56
57 57 57 58 58 56 56 56 56 56 55 54 54 54 56 56 55 55 55 55 55 55
56 56 57 57 58 57 56 56 55 55 55 54 54 54 54 53 53 53 53 54 53 53
57 57 57 58 58 58 57 56 56 56 55 54 54 54 53 53 53 53 53 54 54 54
56 57 57 57 58 58 58 58 57 57 57 54 41 38 41 51 54 54 54 52 52 52
50 50 49 49 48 47 49 47 45 43 41 39 38 37 39 43 54 53 51 50 50 49
43 42 42 41 40 40 40 39 39 38 38 37 36 37 38 41 41 38 36 36 38 39
38 37 36 35 35 35 34 33 33 33 33 34 34 36 37 39 36 33 32 32 34 34
34 34 33 33 33 33 32 31 30 30 31 32 33 34 35 34 33 31 31 31 31 33
34 33 33 33 32 32 31 30 29 28 29 30 31 33 33 33 31 30 29 29 30 31

GFSNIL_sfc_dewp_099.txt.gz
Dewpoint
62 61 60 59 60 60 59 59 59 60 61 61 61 61 61 60 60 59 59 58 58 57
62 61 60 60 60 59 58 59 60 61 60 61 60 60 60 60 60 59 59 58 58 58
59 59 59 59 58 56 56 58 58 59 60 60 60 60 60 59 60 59 59 58 58 58
58 59 59 58 57 57 57 57 57 57 58 59 59 59 59 59 59 58 58 58 58 57
59 59 59 58 56 57 56 57 56 57 57 58 59 59 59 58 58 58 58 58 58 57
58 58 58 58 57 57 56 56 57 56 56 55 57 58 58 58 58 58 58 58 57 57
57 57 58 57 57 56 56 56 56 56 55 55 55 56 57 57 57 57 57 56 56 56
57 57 57 58 57 57 56 56 56 55 55 54 54 52 54 55 55 55 54 55 55 55
56 57 57 58 57 57 56 56 55 55 55 47 42 38 41 50 54 54 53 53 54 55
47 47 47 47 46 46 44 43 42 41 41 39 39 37 39 42 53 53 52 52 53 52
40 39 40 40 39 38 37 37 36 36 37 37 37 38 39 39 39 37 36 36 38 40
35 34 34 34 34 34 33 33 32 33 34 34 34 36 36 36 34 33 33 33 35 35
34 33 32 32 32 32 31 31 30 31 32 33 33 35 35 34 32 31 31 31 32 34
31 32 33 33 32 32 31 30 29 29 30 31 32 33 33 32 31 30 30 30 31 32

GFSNIL_sfc_dewp_102.txt.gz
Dewpoint
62 61 61 60 60 60 60 60 61 61 61 61 61 61 61 61 60 60 59 58 58 57
61 61 60 59 60 60 60 59 60 60 60 61 61 61 61 60 60 60 59 59 59 58
61 60 59 60 60 59 58 59 59 59 60 60 60 60 60 60 60 59 59 59 58 58
59 59 59 59 58 57 57 56 57 58 59 59 59 60 60 60 59 59 59 59 58 57
59 59 58 58 57 57 55 56 56 55 57 57 58 59 59 59 59 59 58 58 58 58
58 58 58 57 57 56 56 56 56 56 56 56 56 57 58 59 58 58 58 58 58 57
58 58 58 57 56 56 56 56 56 56 56 55 55 56 58 58 58 58 58 58 58 58
58 58 58 57 56 56 56 56 56 55 55 55 51 46 50 58 58 57 57 58 58 58
47 56 56 57 57 55 52 53 53 53 51 47 43 38 40 50 55 56 56 56 56 54
38 42 43 45 43 43 42 41 40 40 40 40 39 38 40 42 51 47 49 51 53 49
35 35 36 37 36 36 36 35 35 35 36 36 37 37 38 38 39 38 37 38 41 44
34 33 32 32 32 33 32 32 32 33 33 34 34 35 36 36 35 34 33 35 36 38
31 32 32 32 31 31 31 30 30 30 31 33 32 34 34 34 33 32 32 32 33 34
28 30 31 31 31 31 30 29 29 29 30 31 32 32 33 33 31 31 31 31 31 32

GFSNIL_sfc_dewp_105.txt.gz
Dewpoint
62 62 61 61 62 61 61 62 62 62 62 62 62 62 62 61 61 61 60 59 59 58
61 60 61 61 61 61 60 60 61 62 62 61 62 61 61 61 60 60 60 59 59 58
60 60 59 59 59 59 58 59 59 59 60 60 61 61 61 60 60 60 60 60 59 59
59 59 59 59 58 59 59 59 59 59 58 59 60 60 60 60 59 59 59 59 59 58
59 59 58 58 58 57 57 57 58 57 57 58 58 59 59 59 59 59 58 59 58 58
58 57 57 57 57 57 56 56 55 56 56 56 56 56 56 57 58 59 58 58 58 58
54 58 57 57 57 56 56 55 55 56 56 55 55 55 55 56 57 57 58 59 59 58
46 57 57 57 56 56 56 56 56 56 55 54 51 45 43 48 56 57 57 58 58 58
38 40 43 51 55 52 49 48 48 46 47 45 43 37 38 42 53 56 57 56 57 58
35 35 35 37 39 40 41 40 39 39 39 39 37 37 39 41 46 45 43 47 53 51
33 32 32 32 33 34 35 35 35 35 35 35 35 36 37 37 39 37 37 38 40 45
31 31 31 31 31 31 32 32 32 33 33 33 33 35 35 36 35 34 34 34 36 37
28 29 30 30 30 31 31 30 30 30 31 32 32 34 34 34 33 32 32 33 32 34
27 28 28 29 30 30 30 30 30 29 30 30 31 32 33 33 31 31 31 31 31 32

GFSNIL_sfc_dewp_108.txt.gz
Dewpoint
63 62 62 62 62 62 61 62 62 63 62 63 63 62 62 62 61 61 61 60 60 59
63 62 61 62 62 62 62 61 61 62 62 62 62 62 62 61 61 61 61 60 60 59
61 61 60 60 61 61 61 60 61 61 61 61 61 61 61 61 61 60 60 60 60 59
61 60 60 60 60 60 59 59 60 60 60 59 60 60 60 60 60 59 59 59 59 58
59 60 59 59 59 58 58 58 58 58 58 58 58 59 59 59 59 59 59 58 58 58
52 58 58 58 58 58 58 58 57 57 57 57 57 57 56 56 57 58 58 58 58 58
43 51 57 57 57 57 57 56 56 56 55 55 55 55 53 52 53 55 57 57 58 58
39 41 45 52 56 56 55 56 56 56 55 53 49 42 43 47 49 52 54 56 57 57
36 35 37 38 39 41 41 42 44 45 45 42 41 37 38 40 51 50 48 51 56 58
34 33 33 33 33 34 34 35 35 37 38 37 36 36 38 38 44 43 42 42 44 50
32 32 32 31 31 31 32 32 32 33 34 34 34 35 36 36 38 37 36 36 39 42
28 29 30 30 30 31 30 30 30 31 31 32 32 35 35 35 35 34 33 34 35 36
28 28 27 28 30 31 31 30 29 29 30 30 30 33 34 33 33 32 32 32 32 34
26 28 29 28 29 29 30 30 30 29 29 29 30 30 31 31 30 30 29 29 30 31

GFSNIL_sfc_dewp_111.txt.gz
Dewpoint
62 62 63 64 63 63 63 63 64 64 64 64 64 63 63 63 63 63 62 62 61 60
62 63 63 64 65 65 64 64 64 64 63 63 63 63 63 63 62 62 62 62 62 61
63 63 63 64 64 64 64 63 63 63 63 63 62 63 62 62 62 62 62 62 61 61
61 62 63 62 64 63 63 62 62 62 63 62 62 62 62 62 61 61 61 61 61 61
51 61 61 61 61 61 60 62 62 62 61 60 61 61 61 60 60 60 60 60 60 59
45 50 59 59 59 59 59 59 59 60 60 59 59 59 59 59 58 59 59 59 59 59
40 43 47 55 57 57 58 57 57 58 57 57 55 52 52 53 54 55 55 57 57 57
38 38 40 41 43 45 44 44 45 49 47 46 41 38 41 46 50 52 53 54 55 56
35 35 35 36 37 38 38 37 37 37 37 37 36 36 37 39 47 51 50 49 49 51
32 34 33 33 33 33 33 34 33 34 34 33 33 35 36 37 43 42 41 41 42 44
30 30 32 32 31 32 32 31 30 31 31 30 31 34 35 36 37 36 35 35 37 39
29 29 30 30 31 31 31 30 30 30 29 29 29 32 33 34 34 33 32 32 33 34
27 28 29 30 30 31 31 30 30 29 29 29 28 30 30 30 30 29 30 30 31 32
26 27 28 29 30 32 31 30 30 29 29 29 29 29 29 29 27 27 26 26 27 29

GFSNIL_sfc_dewp_114.txt.gz
Dewpoint
53 56 58 59 58 61 63 63 64 64 64 64 64 64 64 64 64 64 64 64 64 61
53 59 60 61 62 62 64 63 64 64 64 64 64 64 64 63 63 64 64 64 65 63
52 58 61 63 63 63 64 64 64 64 64 63 63 64 64 63 63 63 63 63 63 63
52 61 62 63 63 64 64 64 64 64 64 63 63 63 63 63 62 62 62 62 62 62
46 51 62 62 63 64 63 64 63 63 62 62 62 62 62 61 61 61 61 61 61 61
42 44 48 57 60 61 61 61 61 61 61 62 61 61 61 61 61 61 61 60 60 60
39 41 43 45 47 48 52 56 53 51 46 44 43 44 48 54 56 57 57 58 59 58
37 36 38 39 40 42 42 43 43 40 39 39 37 37 41 47 52 53 54 55 55 55
34 34 34 34 36 35 37 36 36 35 35 36 36 37 37 42 49 48 46 45 45 47
31 32 33 33 32 32 32 33 33 33 33 33 34 35 37 38 40 38 37 37 37 39
30 30 31 31 31 31 31 31 31 31 31 31 32 33 35 35 35 34 33 33 32 35
30 30 30 30 31 31 30 30 30 29 29 29 30 32 32 32 32 31 30 30 30 31
29 30 30 31 32 32 32 31 30 29 29 29 28 30 31 30 29 27 27 27 28 29
29 29 30 31 31 31 31 31 31 31 31 30 30 30 30 29 27 27 26 26 25 27

GFSNIL_sfc_dewp_117.txt.gz
Dewpoint
42 45 49 52 55 56 61 63 66 66 65 65 66 65 65 64 64 64 64 63 63 62
42 45 48 53 57 58 61 63 65 66 64 64 64 65 64 64 63 64 64 64 63 64
42 46 49 55 59 61 61 63 64 65 64 64 64 64 64 64 63 63 63 64 63 63
44 46 50 57 61 62 62 62 62 64 64 63 63 63 63 63 62 62 63 63 63 63
42 45 47 55 60 62 61 62 62 63 63 63 63 63 62 62 62 62 61 62 62 61
39 41 41 44 47 50 58 59 57 59 56 58 60 61 62 62 61 62 62 62 61 61
36 37 38 39 40 43 44 43 44 42 42 41 41 44 50 59 60 59 59 60 60 60
34 35 35 36 36 37 38 38 40 42 41 40 39 40 42 52 54 55 55 51 50 49
32 32 32 32 33 34 34 33 34 35 36 38 38 39 40 45 46 44 43 42 42 44
31 31 31 31 31 30 31 32 32 32 32 32 33 36 36 36 37 36 34 34 36 37
31 30 31 31 31 30 30 30 30 30 30 30 31 32 33 34 33 32 31 31 31 33
30 30 30 31 31 31 32 30 30 30 29 29 30 31 31 31 31 30 29 30 30 30
29 29 30 30 31 31 32 32 31 30 31 30 29 32 31 29 28 27 27 28 28 30
28 28 28 29 30 31 31 30 31 30 29 30 30 31 32 31 29 28 26 26 26 27

GFSNIL_sfc_dewp_120.txt.gz
Dewpoint
36 38 39 41 45 48 52 55 59 61 62 64 65 66 66 65 65 64 63 62 62 62
36 37 39 41 44 47 50 54 57 61 61 63 65 65 65 64 64 64 63 62 62 62
37 39 40 42 44 46 49 54 57 60 61 61 64 64 64 64 63 63 62 62 62 62
39 41 43 45 48 48 50 53 57 57 59 56 62 62 63 63 63 62 62 62 62 62
38 39 40 42 45 50 52 55 59 59 59 58 61 62 62 62 62 62 61 62 62 61
35 36 37 37 40 41 42 45 45 46 48 49 52 61 63 62 62 62 61 62 61 61
33 34 35 36 35 36 38 37 40 43 42 44 44 45 49 61 61 61 61 61 58 55
33 32 32 33 34 33 34 34 35 35 38 39 40 43 46 47 46 48 48 48 47 43
32 32 31 31 31 32 32 32 33 33 33 33 36 38 40 38 37 37 37 37 40 41
31 31 31 32 30 30 30 31 31 31 32 32 33 34 35 36 36 35 34 33 33 34
30 29 31 31 31 31 31 29 29 29 30 29 30 32 32 32 31 30 30 31 32 32
26 27 27 28 30 31 31 29 28 29 28 28 30 32 32 30 29 28 27 28 30 30
25 23 25 26 27 29 29 30 29 28 28 28 28 32 32 31 29 28 28 28 28 30
23 24 22 23 25 25 26 25 26 26 26 25 26 27 29 30 29 28 28 28 28 30

GFSNIL_sfc_dewp_123.txt.gz
Dewpoint
31 33 34 35 37 39 40 43 46 50 53 58 61 62 63 64 63 61 61 62 63 62
33 34 35 36 37 39 41 42 44 48 51 55 59 61 61 62 62 62 61 61 63 62
35 37 38 39 39 40 42 44 44 46 48 53 57 60 60 60 61 61 63 62 62 62
36 37 37 39 41 42 45 45 47 47 49 52 57 59 58 60 60 61 62 62 62 61
34 35 36 36 38 40 42 46 49 50 51 54 53 54 54 55 55 52 61 61 62 61
33 33 34 35 35 36 37 38 40 41 41 42 43 45 49 52 54 60 61 61 61 61
32 33 33 33 33 34 34 34 34 35 36 36 37 39 44 52 59 59 59 56 55 52
32 33 33 32 31 31 32 32 32 32 32 34 34 35 37 41 42 43 44 43 40 40
30 31 32 32 31 30 30 30 31 31 31 31 32 34 34 34 34 36 36 37 36 36
27 28 29 31 31 29 28 29 28 30 30 30 31 33 33 32 31 32 32 32 33 34
23 24 26 27 28 30 28 27 27 27 28 29 31 33 32 32 31 29 29 30 30 30
20 21 22 23 25 25 26 25 24 24 25 25 28 32 32 30 30 29 29 30 31 30
19 18 19 21 22 24 22 22 22 21 22 25 24 29 31 30 29 28 28 30 30 32
21 19 19 18 19 20 21 20 19 19 20 21 24 24 28 29 29 28 27 28 28 30

GFSNIL_sfc_dewp_126.txt.gz
Dewpoint
32 33 33 34 34 35 36 37 39 41 43 45 48 50 54 60 62 61 62 62 60 59
34 35 36 36 36 37 38 39 41 42 43 45 47 50 53 58 60 60 60 60 58 57
35 35 36 38 38 40 42 43 43 43 44 45 46 48 51 55 59 59 58 58 57 58
34 35 35 35 36 37 39 40 44 46 46 46 47 48 51 54 58 58 59 58 57 57
35 34 34 34 35 36 36 37 37 39 40 42 44 47 50 52 57 58 57 57 59 59
33 33 33 32 33 34 34 34 34 35 36 36 38 42 45 48 53 53 53 52 54 55
29 32 32 32 31 31 32 32 33 33 34 34 35 36 37 39 42 41 41 41 41 42
27 30 32 30 29 30 30 31 31 31 32 33 33 33 34 34 34 35 36 36 37 38
25 26 28 29 28 27 27 28 27 30 31 31 32 33 33 33 33 32 32 32 34 35
21 22 24 24 25 25 24 24 25 26 28 30 31 33 33 32 31 31 31 31 31 32
19 19 20 22 21 22 22 22 22 24 25 28 31 33 33 32 31 30 30 30 30 30
18 17 17 18 20 20 20 19 20 22 24 24 27 30 31 29 29 29 29 29 30 29
19 18 17 17 17 18 19 19 19 19 21 24 24 28 28 27 27 26 26 27 28 29
20 19 19 18 18 18 18 18 18 18 20 21 23 24 25 25 25 24 24 24 24 25